DECAYED
Showing default

MEZNSAT, 46489 (Decayed)

Orbit data source: Space-Track

MEZNSAT, 46489 was an Emirian payload satellite in LEO that was launched on Mon, 28 Sep 2020 UTC via a SOYUZ-2-1B launch vehicle from the Plesetsk Missile And Space Complex (PKMTR). Payload-class satellites include a variety of spacecraft equipped with specific instruments for various scientific and technological missions. These include communications satellites like Starlink; space stations such as the ISS; scientific satellites like the Hubble; Earth observation satellites from companies like Planet Labs, Umbra, and HawkEye 360; GPS; miniature CubeSats for education and research; and military/defense satellites.

Not visible in the next 10 days
Identifier
46489, 2020-068D
Orbit
Decayed
Last TLE update
1 week ago
Origin
Manufacturer
MASDAR/AURAK
Mission
Decayed Amateur Science
Bus & Motor
CUBESAT 3U, Unknown motor
Mass
5 kg wet, 5 kg dry
Launch date (UTC)
2020-09-28 (5 years ago)
Launch vehicle
SOYUZ-2-1B
Launch site
Plesetsk Missile And Space Complex (PKMTR)
Object type
Payload
Rocket body
Debris
Shape & HBR
Box, Unknown HBR
Radar Cross Section
0.035 m², Small (<0.1 m²)

Expand to show TLE details & history

TLE from 1 week ago
0 MEZNSAT
1 46489U 20068D   25122.19000044  .13801218  28762-5  41319-3 0  9992
2 46489  97.7956 120.2839 0010301 238.1381 121.8917 16.44344453254134
Epoch: 2025-05-02T04:33Z
Definitive object data (Epoch: 2025-05-02T04:33:36.038Z)
Latitude
-0.00005°
Longitude
-168.46643°
Altitude
161.077 km
Speed
7.807 km/s
True Right ascension
08h 01m 08s
True Declination
0° 00' 00"
Sunlit
Object was in daylight at TLE epoch
Visualization observer readout
Visualization observer readout
Orbital elements
Apogee altitude
157.817 km
Perigee altitude
144.366 km
Semi-major axis
6,529.228 km
Eccentricity
0.0010301
Inclination
97.7956°
RAAN
120.2839°
Arg. of periapsis
238.1381°
True anomaly
121.99185°
Mean anomaly
121.8917°
Eccentric anomaly
121.94178°
Mean motion
4.11387 °/min
BSTAR
0.00041319
Orbital period
87.51 mins
Loading maneuver chart data...
Loading SW <> Apogee altitude chart data...
Loading historical data...
Loading historical data...
Loading historical data...
Loading historical data...
Loading historical data...
Loading historical data...
Loading historical data...

MEZNSAT Visibility forecast

Observer location: undefined°, undefined°

This satellite is decayed
Span
Click to sort rows by Start time (UTC) header in descending order
Start Az.
Max El. time (UTC)
Max El. Az.
Max El.
End time (UTC)
End Az.
|